Regional Weather Roundup
Issued by NWS

Home | Current Version | Previous Version | Text Only | Print | Product List | Glossary Off
Versions: 1 2 3 4 5 6 7 8 9 10 11 12 13 14 15 16 17 18 19 20 21 22 23 24 25 26 27 28 29 30 31 32 33 34 35 36 37 38 39 40 41 42 43 44 45 46 47 48 49 50

000
ASUS45 KCYS 230710
RWRWY

WYOMING REGIONAL WEATHER ROUNDUP
NATIONAL WEATHER SERVICE CHEYENNE WY
100 AM MDT FRI JUN 23 2017

NOTE:  "FAIR" INDICATES FEW OR NO CLOUDS BELOW 12,000 FEET
WITH NO SIGNIFICANT WEATHER AND/OR OBSTRUCTIONS TO VISIBILITY.

WYZ001-230800-
YELLOWSTONE NATIONAL PARK

CITY           SKY/WX    TMP DP  RH WIND       PRES   REMARKS
LK YELLOWSTONE   N/A     37  29  72 CALM      30.37R
W YELLOWSTONE  NOT AVBL

$$
WYZ002>013-054>058-071-098>099-230800-
NORTHERN WYOMING

CITY           SKY/WX    TMP DP  RH WIND       PRES   REMARKS
JACKSON        FAIR      52  30  43 N15G23    30.25R
CODY           FAIR      49  36  61 NW7       30.33S
GREYBULL       FAIR      58  30  34 NW18      30.25R
WORLAND        FAIR      56  35  45 NW12      30.26R
SHERIDAN       FAIR      50  39  66 W7        30.28R
BUFFALO        LGT RAIN  47  38  71 NW15      30.29R
GILLETTE       CLOUDY    53  35  50 N14       30.26R
NEWCASTLE      FAIR      55  30  38 N15G29    30.20R

$$
WYZ014>020-022>026-101>103-230800-
CENTRAL WYOMING

CITY           SKY/WX    TMP DP  RH WIND       PRES   REMARKS
BIG PINEY      FAIR      44  31  60 CALM      30.26R
PINEDALE       FAIR      45  32  61 CALM      30.26S
DUBOIS         CLOUDY    48  27  43 E7        30.29R
LANDER         FAIR      52  27  38 E5        30.28R
RIVERTON       FAIR      53  28  38 NE17G28   30.28R
CASPER         CLOUDY    55  28  35 N18       30.26R
DOUGLAS        CLOUDY    56  35  45 NE15G24   30.23R

$$
WYZ021-027>030-104>119-230800-
SOUTHERN WYOMING

CITY           SKY/WX    TMP DP  RH WIND       PRES   REMARKS
EVANSTON       FAIR      57  33  40 NE8       30.27R
KEMMERER         N/A     50  34  53 W3        30.28R
FORT BRIDGER   FAIR      54  34  46 W7        30.29S
ROCK SPRINGS   FAIR      53  27  36 NE15G24   30.25R
DIXON          FAIR      59  37  43 N14G25    30.19R
RAWLINS        FAIR      54  29  38 N14       30.25R
SARATOGA       FAIR      54  37  54 NW6       30.21R
LARAMIE        CLOUDY    57  45  64 N6        30.22R
CHEYENNE       LGT RAIN  57  53  86 E10       30.18R
TORRINGTON     CLOUDY    60  39  45 NE16      30.11R
PINE BLUFFS    TSTM      59  55  88 W10       30.17R

$$



USA.gov is the U.S. government's official web portal to all federal, state and local government web resources and services.